IRIDIUM 6 [-] (24794 NORAD) Tracking and Keplerian Element Data

This shows tracking and keplerian element data for the satellite.

Feedback or suggestion? Click here.




ElementValue
Catalog24794
NameIRIDIUM 6 [-]
Epoch Orbit8060
Epoch Day357.2913307
Epoch Year2017
RAAN237.4619
Inclination86.3482
Eccentricity0.003873
Argument of Perigee97.6871
Mean Anonmoly263.3574
Mean Motion16.47860342
Decay Rate0.33479621
L11 24794U 97020C 17357.29133070 .33479621 -16083-5 31051-3 0 9994
L22 24794 86.3482 237.4619 0038730 97.6871 263.3574 16.47860342 80605



Live tracking and technical data element details for IRIDIUM 6 [-] (NORAD 24794). IRIDIUM 6 [-] can be tracked NOW for your location showing map with azimuth and elevation plus other details from your city location.







IsCatalogInMostPopularTable: catalog: 24794, numindb: 386
Update: records affected: 1



GetName: 24794 IRIDIUM 6 [-]

Hit Count: updated at: Fri, 16 May 2025 11:26:02 GMT